Content
SEND FEEDBACK

Daily
Averages
Monthly
Summary
Libya

TARHUNA, LIBYA


Home > Africa > Libya
Elevation: 410 meters     Latitude: 32 25N     Longitude: 013 34E

WEATHER
 
SELECT A DAY
Number of Records: 167,293;   Date Range: 7/1/96 - 10/19/14
 
SHARE

PRINT THIS DATA

[ ← Previous Day ]
WEATHER ALMANAC - 31 JANUARY, 2013
[ Next Day → ]
[ °F ]   °C
Weather ElementAverageHighLow
Temperature13.3 °C20 °C (2:20 pm)7 °C (7:20 am)
Dewpoint3.9 °C7 °C (10:50 pm)2 °C (6:50 am)
Humidity54.2 %82 % (12:50 am)22 % (4:00 pm)
Barometer1026.1 hPa1027.4 hPa (10:00 am)1025.1 hPa (2:20 am)
Wind Speed14.5 km/h24.1 km/h (11:20 am)
Weather ElementAverage
Visibility10.6 km
Wind DirectionW (272.4 °)

Weather ElementTotal
Precipitation---
Heating Degree Days4.8 (Base 18.3)
Growing Degree Days3.5 (Base 10)
Averaged from 37 records on 31 January, 2013
WEATHER CONDITIONS BREAKOUT
WIND DIRECTION BREAKOUT
WEATHER BY HOUR - 31 JANUARY, 2013
[ °F ]   °C
Local TimeTemperatureDewpointHumidityBarometerVisibilityWind DirectionWind SpeedGust SpeedPrecipitationEventsConditions
12:50 AM9 °C6 °C82 %1026.1 hPaWSW (240°)11.1 km/hClear
1:20 AM9 °C5 °C76 %1026.1 hPaWest (260°)11.1 km/hClear
1:50 AM9 °C5 °C76 %1026.1 hPaWSW (250°)11.1 km/hClear
2:20 AM9 °C4 °C71 %1025.1 hPaWest (260°)13 km/hClear
2:50 AM9 °C4 °C71 %1025.1 hPaWest (260°)13 km/hClear
3:50 AM9 °C3 °C66 %1025.1 hPaWest (260°)18.5 km/hClear
6:50 AM8 °C2 °C66 %1026.1 hPaWSW (250°)16.7 km/hClear
7:00 AM7.8 °C2.2 °C59 %1026.8 hPa14.5 kmWSW (250°)18.5 km/hScattered Clouds
7:20 AM7 °C2 °C71 %1026.1 hPaWSW (250°)14.8 km/hClear
7:50 AM9 °C3 °C66 %1026.1 hPaWSW (250°)18.5 km/hClear
8:20 AM9 °C2 °C62 %1026.1 hPaWSW (250°)14.8 km/hClear
8:50 AM11 °C2 °C54 %1026.1 hPaWSW (250°)16.7 km/hClear
9:50 AM14 °C3 °C48 %1026.1 hPaWest (260°)18.5 km/hClear
10:00 AM13.9 °C3.3 °C37 %1027.4 hPa14.5 kmWest (260°)18.5 km/hPartly Cloudy
10:20 AM15 °C3 °C45 %1027.1 hPaWest (270°)22.2 km/hClear
10:50 AM16 °C4 °C45 %1027.1 hPaWest (280°)22.2 km/hClear
11:20 AM17 °C4 °C42 %1026.1 hPaWNW (290°)24.1 km/hClear
11:50 AM17 °C4 °C42 %1026.1 hPaWNW (290°)22.2 km/hClear
12:50 PM18 °C5 °C42 %1025.1 hPaWNW (290°)20.4 km/hClear
1:00 PM18.3 °C4.4 °C29 %1026.4 hPa14.5 kmWNW (290°)20.4 km/hScattered Clouds
1:50 PM19 °C3 °C35 %1025.1 hPaNW (320°)20.4 km/hClear
2:20 PM20 °C3 °C33 %1025.1 hPaNW (310°)14.8 km/hClear
2:50 PM20 °C3 °C33 %1025.1 hPaNNW (330°)16.7 km/hClear
3:50 PM19 °C2 °C32 %1025.1 hPaNNW (330°)16.7 km/hClear
4:00 PM18.9 °C2.2 °C22 %1025.7 hPa14.5 kmNNW (330°)16.7 km/hClear
4:20 PM18 °C2 °C34 %1025.1 hPaNNW (330°)13 km/hClear
4:50 PM18 °C2 °C34 %1025.1 hPaNNW (330°)16.7 km/hClear
5:50 PM16 °C5 °C48 %1025.1 hPaWNW (300°)7.4 km/hClear
6:50 PM15 °C5 °C51 %1026.1 hPaWNW (290°)7.4 km/hClear
7:00 PM14.4 °C5 °C41 %1027.1 hPa9.7 kmWNW (290°)7.4 km/h
7:50 PM13 °C5 °C58 %1026.1 hPaWest (270°)3.7 km/hClear
8:50 PM12 °C6 °C67 %1026.1 hPaWest (280°)11.1 km/hClear
9:50 PM11 °C6 °C71 %1026.1 hPa8 kmWSW (240°)5.6 km/h
10:00 PM11.1 °C5.6 °C61 %1026.8 hPa8 kmWSW (240°)5.6 km/hHaze
10:50 PM11 °C7 °C76 %1027.1 hPa8 kmSSW (210°)7.4 km/h
11:20 PM10 °C7 °C82 %1027.1 hPa8 kmSSW (210°)11.1 km/h
11:50 PM10 °C6 °C76 %1027.1 hPa6.9 kmSSW (210°)9.3 km/h
Hourly data recorded from HLLT, located 0 kilometers away from Tarhuna, Libya







STORIES FROM OUR PARTNERS